Other Surface Observations
Issued by NWS Charleston, SC

Home | Current Version | Previous Version | Text Only | Print | Product List | Glossary On
Versions: 1 2 3 4 5 6 7 8 9 10 11 12 13 14 15 16 17 18 19 20 21 22 23 24 25 26 27 28 29 30 31 32 33 34 35 36 37 38 39 40 41 42 43 44 45 46 47 48 49 50
000
SXUS52 KCHS 250827
OSOCHS

MARINE OBSERVATIONS
NATIONAL WEATHER SERVICE CHARLESTON SC
300 AM EST SAT NOV 25 2017

...DOWNTOWN CHARLESTON AND HARBOR...

CITY           SKY/WX    TMP DP  RH WIND       PRES   REMARKS
WATERFRONT PRK   N/A     51  40  65 CALM      29.82F

...LAKE MOULTRIE...

CITY           SKY/WX    TMP DP  RH WIND       PRES   REMARKS
PINOPOLIS        N/A     48  39  71 CALM      29.90R

...LAKE AND SUPPLEMENTAL COASTAL OBSERVATIONS...

STATION/POSITION TIME  TEMP    WIND        PRES    WAVE   SWELL
                       AIR SEA DIR/SP/G            HT/PER HT/PER/DIR
                 (UTC) (F)     (DEG/KT/KT) (MB)    (FT/S) (FT/S/D)
FORT PULASKI     0800   49 60  330/  7/  8 1015.8
SAPELO ISLAND    0800   45        CALM     1015.0
WINYAH BAY       0745   44     320/  3     1014.0S
LAKE MURRAY      0820   46      CALM  /  1 1013.9
ACE BASIN NERRS  0745   40        CALM     1015.0S


...C-MAN AND BUOY OBSERVATIONS...

STATION/POSITION TIME  TEMP    WIND        PRES    WAVE   SWELL
                       AIR SEA DIR/SP/G            HT/PER HT/PER/DIR
                 (UTC) (F)     (DEG/KT/KT) (MB)    (FT/S) (FT/S/D)
BUOY 41004       0810   62 74  340/ 12/ 16 1013.6
BUOY 41008       0750   61 65  350/  8/ 10 1015.0S   4/10   3/100/10
FOLLY BEACH CMAN 0800   49     300/  4/  5 1015.3S
CAPERS NS BUOY   0808   50 60  360/  8/ 10 1014.4R
FRIPP NS BUOY    0708   52 61  330/  6/ 12 1014.6R
5E ST. MARYS GA  0800      66                N/A     3/10   2/100/11


STATION/POSITION TIME  TEMP    WIND        PRES    WAVE   SWELL
                       AIR SEA DIR/SP/G            HT/PER HT/PER/DIR
                 (UTC) (F)     (DEG/KT/KT) (MB)    (FT/S) (FT/S/D)
FRYING PAN BUOY  0810   58 72  330/ 14/ 17 1012.7
BUOY 41025       0810   67 71   20/ 12/ 14 1011.0
CAPE LOOKOUT NC  0800          350/ 12/ 14 1012.2R
BUOY 41002       0750   75 76  240/ 17/ 21 1007.0F   7/ 8   5/ 40/ 9
BUOY 41010       NOT AVBL
ST AUGUSTINE FL  0800   54 66  270/  6/  7 1015.4S

$$




USA.gov is the U.S. government's official web portal to all federal, state and local government web resources and services.